{"data":{"norad_id":65023,"epoch":"2026-09-20T21:26:40.037280Z","epoch_age_seconds":90186,"freshness":"FRESH","line1":"1 65023U 25161J   26263.89351895  .00022929  00000+0  68741-3 0  9990","line2":"2 65023  53.1582 105.5713 0001276  80.4230 279.6916 15.34411789 65236","mean_motion":15.34411789,"eccentricity":0.0001276,"inclination_deg":53.1582,"raan_deg":105.5713,"arg_perigee_deg":80.423,"mean_anomaly_deg":279.6916,"bstar":0.00068741,"rev_number":6523,"period_min":93.847037042023,"perigee_km":461.79531429538,"apogee_km":463.54108778268,"semimajor_km":6840.805201039,"source":"CELESTRAK","updated_at":"2026-09-21T09:00:35.493222Z"}}